Tracking 23440 objects as of 13-Jun-2021
HD Live streaming from Space Station
objects crossing your sky now

WEINA 2

Track WEINA 2 now!
10-day predictions


NORAD ID: 47303
Int'l Code: 2020-103B
Perigee: 702.2 km
Apogee: 704.0 km
Inclination: 98.3 °
Period: 98.7 minutes
Semi major axis: 7074 km
RCS: Unknown
Launch date: December 27, 2020
Source: People's Republic of China (PRC)
Launch site: Jiuquan Satellite Launch Center, China (JSC)
aabbcc
Your satellite tracking list
Your tracking list is empty




NASA's NSSDC Master Catalog

Two Line Element Set (TLE):
1 47303U 20103B   21164.13893594  .00000197  00000-0  51629-4 0  9993
2 47303  98.2553  53.3467 0001324  70.6100 289.5249 14.59138427 24439
Source of the keplerian elements: AFSPC